パンスターズ彗星

P/2019 A3 ( PanSTARRS )

English version
Home page
Updated on January 12, 2019

---------------------------------------------------------------------

・ プロフィール

発見日 2019年1月3日
発見光度 21.9等
発見者 Pan-STARRS 1 telescope (Haleakala)

・ 軌道要素

Epoch 2018 July 21.0 TT = JDT 2458320.5
T 2018 Aug. 1.80069 TT                                  MPCW
q   2.3134204            (2000.0)            P               Q
n   0.17656580     Peri.  325.47270     +0.98790878     +0.07103334
a   3.1467699      Node    31.33334     +0.02450961     +0.80612924
e   0.2648270      Incl.   15.36716     -0.15308666     +0.58746056
P   5.58
From 34 observations 2018 Aug. 8-2019 Jan. 10, mean residual 0".3.

・ 光度変化

        m1 = 17.0 + 5 logΔ + 10.0 log r

---------------------------------------------------------------------

軌道要素はM.P.E.C. 2019-A166に掲載されたものです。
光度グラフはComet for Windowsで作成したものです。

---------------------------------------------------------------------

Copyright(C) Seiichi Yoshida (comet@aerith.net). All rights reserved.